Location: Newark
(42.8481°N, 0.4872°E)
Time: 16:54:29
(UTC+00:00)

A-11 Canister half - Pass Details

Date: 31 October 2020
Orbit: 1525 x 1683 km, 47.3° (Epoch: 22 November)

Event Time Altitude Azimuth Distance (km) Brightness Sun altitude
Rises 13:06:56 0° 225° (SW) 4,827 12.6 29.5°
Reaches altitude 10° 13:10:07 10° 222° (SW) 3,821 12.5 29.3°
Maximum altitude 13:19:35 62° 145° (SE) 1,737 10.0 28.5°
Drops below altitude 10° 13:28:47 10° 67° (ENE) 3,721 10.7 27.7°
Sets 13:31:51 0° 65° (ENE) 4,694 11.1 27.4°
